Home > Weather > Prince Rupert > Past weeks

Flag for Canada Past Weather in Prince Rupert, British Columbia, Canada — Yesterday and Last 2 Weeks

Now
52 °F

Overcast.


Feels Like: 49 °F
Forecast: 47 / 52 °F
Wind: 7 mph from West

Location: Prince Rupert

Current Time: May 25, 2016 at 12:05:55 PM

Latest Report: May 25, 2016 at 11:00 AM


Visibility: 9 mi

Pressure: 30.18 "Hg

Humidity: 77%

Dew Point: 45 °F

Location of Prince RupertLocation

Past Weather in Prince Rupert — Graph

°F

Prince Rupert Temperature Yesterday

Maximum temperature yesterday: 55 °F (at 1:00 PM)
Minimum temperature yesterday: 48 °F (at 8:00 AM)
Average temperature yesterday: 51 °F

High & Low Weather Summary for the Past Weeks

 TemperatureHumidityPressure
High77 °F (May 14, 3:00 PM)100% (May 11, 6:00 AM)30.33 "Hg (May 11, 6:00 AM)
Low43 °F (May 11, 5:00 AM)17% (May 13, 1:00 PM)29.75 "Hg (May 21, 6:00 PM)
Average54 °F76%30.03 "Hg
* Reported May 10 11:00 AM — May 25 11:00 AM, Prince Rupert, Weather by CustomWeather, © 2016

Note: Actual official high and low records may vary slightly from our data, if they occured in-between our weather recording intervals... More about our weather records

Advertising

Prince Rupert Weather History for the Previous 24 Hours

Scroll right to see more
 ConditionsComfort  
Time TempWeatherWind HumidityBarometerVisibility
11:00 AM
Wed, May 25
52 °FOvercast.7 mph77%30.18 "Hg9 mi
10:00 AM50 °FMore clouds than sun.6 mph82%30.18 "Hg9 mi
9:00 AM50 °FOvercast.6 mph76%30.16 "Hg9 mi
8:00 AM50 °FLight rain. Overcast.5 mph82%30.15 "Hg9 mi
7:58 AM50 °FLight rain. Overcast.3 mph82%30.15 "Hg9 mi
7:00 AM50 °FOvercast.5 mph76%30.14 "Hg9 mi
6:00 AM50 °FMostly cloudy.7 mph76%30.14 "Hg9 mi
5:00 AM50 °FOvercast.6 mph76%30.14 "Hg9 mi
4:00 AM50 °FOvercast.6 mph76%30.14 "Hg9 mi
3:04 AM50 °FMostly cloudy.5 mph76%30.13 "Hg9 mi
2:03 AM48 °FPassing clouds.7 mph87%30.13 "Hg9 mi
1:50 AM48 °FPartly cloudy.6 mph87%30.13 "Hg9 mi
1:00 AM50 °FMostly cloudy.6 mph82%30.12 "Hg9 mi
12:00 AM50 °FOvercast.7 mph82%30.12 "Hg9 mi
11:00 PM
Tue, May 24
48 °FPassing clouds.9 mph87%30.11 "Hg9 mi
10:00 PM50 °FSunny.8 mph76%30.11 "Hg9 mi
9:00 PM50 °FPartly sunny.8 mph76%30.09 "Hg9 mi
8:00 PM52 °FPassing clouds.10 mph72%30.09 "Hg9 mi
7:00 PM54 °FSunny.12 mph72%30.08 "Hg9 mi
6:00 PM54 °FSunny.13 mph72%30.07 "Hg9 mi
5:00 PM54 °FSunny.12 mph72%30.07 "Hg9 mi
4:00 PM55 °FSunny.12 mph72%30.06 "Hg9 mi
3:00 PM54 °FScattered clouds.15 mph77%30.06 "Hg9 mi
2:00 PM55 °FScattered clouds.9 mph72%30.05 "Hg9 mi
1:00 PM55 °FOvercast.9 mph67%30.04 "Hg9 mi
12:00 PM52 °FPartly sunny.6 mph77%30.03 "Hg9 mi
Weather by CustomWeather, © 2016

See weather overviewHow to use our weather pages